Location: Albany
(35.0170°S, 117.8920°E)
Time: 17:00:01
(UTC+08:00)

Transit 2A - Pass Details

Date: 27 January 2021
Orbit: 601 x 958 km, 66.7° (Epoch: 02 March)

Event Time Altitude Azimuth Distance (km) Brightness Sun altitude
Rises 23:21:21 0° 198° (SSW) 3,549 10.5 -34.8°
Reaches altitude 10° 23:24:08 10° 188° (S) 2,643 9.5 -35.0°
Enters shadow 23:29:03 32° 136° (SE) 1,582 7.7 -35.3°
Maximum altitude 23:29:40 33° 125° (SE) 1,566 - -35.3°
Drops below altitude 10° 23:35:18 10° 63° (ENE) 2,693 - -35.6°
Sets 23:38:08 0° 53° (NE) 3,626 - -35.7°
